Theta_e
349 356 364 360 360 360 360 360 361 361 359 361 361 363 362 361 361 361 360 359 361 363 361 361 361 361 361 361 363 363 364 363 364 364 363 363 364 364 365 366 363 360 364
353 357 364 364 359 359 359 360 362 362 362 361 363 363 360 362 361 361 364 361 360 360 360 360 361 359 358 360 360 360 361 362 363 363 363 361 363 361 364 365 362 360 362
352 356 357 363 360 358 359 363 363 362 362 362 363 362 362 363 361 361 361 360 360 359 359 358 358 358 358 357 355 356 357 358 357 357 361 356 356 362 363 363 363 363 363
352 353 356 362 362 359 361 363 364 361 362 362 362 362 363 362 363 361 360 360 359 358 358 358 357 355 355 357 357 354 354 355 356 356 356 357 354 361 362 361 361 362 362
346 352 356 365 363 361 361 363 363 362 362 362 362 362 362 362 362 361 360 360 358 357 356 355 355 357 357 356 356 357 357 357 357 355 354 353 349 359 362 362 361 362 361
348 355 362 365 362 362 362 362 361 363 362 362 362 361 361 361 362 361 360 359 358 358 358 358 358 357 355 354 357 357 358 358 359 353 351 351 349 360 362 361 362 361 363
351 356 359 366 363 364 364 363 361 362 363 362 360 359 359 358 357 357 356 356 356 356 356 356 357 359 361 361 358 357 358 357 352 350 347 350 349 361 364 363 365 364 362
352 356 358 364 364 363 363 363 362 360 358 357 356 356 355 355 355 356 356 357 357 358 359 359 359 360 361 362 363 364 362 360 354 349 349 350 357 362 363 364 364 365 362
352 352 356 356 359 364 364 364 361 357 355 355 356 356 356 356 357 358 360 360 359 360 361 361 361 362 362 363 364 366 365 363 356 355 353 351 361 364 365 364 364 364 365
348 350 351 353 355 353 354 362 358 357 358 359 358 358 358 359 360 361 363 364 361 361 362 363 363 364 367 367 366 365 363 364 356 355 351 352 362 365 366 365 365 364 364
345 344 349 352 352 348 351 356 360 360 361 360 359 361 362 356 357 361 362 364 364 365 365 364 365 368 368 368 367 364 359 344 348 348 348 352 358 350 364 364 364 364 365
339 342 348 350 349 348 352 347 350 354 353 353 354 354 357 355 356 362 363 370 373 368 370 368 368 371 368 360 352 350 344 342 343 345 345 352 356 341 348 361 361 362 362
337 344 345 347 350 349 349 348 350 350 351 353 354 357 359 361 359 361 359 360 362 369 364 364 364 363 360 344 338 338 342 340 342 344 346 352 354 347 344 358 360 360 360
337 340 344 346 345 348 350 350 351 351 353 355 358 359 354 347 349 355 357 356 357 356 358 361 359 357 347 341 342 337 344 341 342 345 349 355 356 348 349 359 358 357 358
338 340 345 347 349 355 351 357 357 354 354 356 354 361 355 351 352 355 358 356 360 359 359 355 355 356 354 353 349 343 350 351 345 348 345 353 351 353 358 357 354 354 356
339 345 347 348 351 354 355 354 358 354 354 354 355 359 361 357 353 355 351 354 349 349 355 354 353 354 353 355 352 350 345 347 352 351 348 350 353 358 352 352 352 354 355
339 346 346 348 352 353 357 354 356 355 353 352 356 353 361 360 358 350 348 348 343 347 355 358 357 356 353 350 349 347 348 352 354 355 352 351 354 355 352 353 355 355 355
339 343 348 351 352 355 354 358 358 355 351 354 356 355 361 358 359 349 349 347 349 354 354 352 350 350 348 347 346 347 343 353 356 352 354 354 351 352 350 354 354 353 356
340 344 343 347 352 355 356 357 359 353 354 354 355 360 360 353 360 353 344 342 352 355 354 350 346 352 350 348 348 345 344 348 351 355 355 351 345 350 348 350 352 350 354
343 346 343 350 351 355 356 357 358 356 354 357 358 357 356 354 358 355 355 353 354 355 351 348 352 354 353 352 353 351 346 348 346 347 349 339 341 343 346 347 346 346 350
343 344 346 345 354 355 355 351 351 350 354 354 356 355 357 355 350 351 356 354 357 355 355 356 356 352 350 352 347 343 344 346 345 341 336 334 338 340 342 342 342 342 344
342 343 345 349 352 352 352 355 352 351 354 353 355 356 360 357 354 355 353 358 359 360 357 352 346 350 348 350 343 338 333 336 339 335 332 335 334 334 336 341 341 339 340
342 344 346 348 353 350 351 353 355 354 353 353 347 347 353 356 356 354 352 356 359 361 356 351 350 350 344 348 349 340 332 328 333 335 331 332 331 330 333 337 339 339 340
342 346 348 350 354 351 349 350 349 346 345 350 353 349 354 359 354 354 356 358 360 361 356 355 358 353 348 345 348 350 343 340 333 331 332 329 331 330 330 335 336 339 340
344 346 350 350 353 351 352 353 349 348 349 353 350 350 354 355 358 359 359 362 363 363 361 359 356 355 354 350 349 347 342 341 341 335 333 329 329 329 330 333 336 335 335
346 347 349 349 350 354 352 352 352 351 347 346 354 355 360 353 356 359 358 359 360 361 360 357 355 354 353 354 352 347 343 339 338 335 334 329 323 327 333 335 334 333 335
Wind_Speed
7 7 12 14 14 14 15 16 17 17 16 16 15 16 17 17 16 16 13 11 12 12 12 11 11 9 8 10 9 11 11 11 11 11 12 11 10 9 9 11 15 11 14
13 9 13 14 13 13 14 13 14 15 16 15 15 15 14 14 14 14 11 11 10 10 9 8 8 7 7 7 6 7 7 6 7 9 11 11 12 8 6 11 15 11 13
14 11 12 14 13 13 12 11 13 13 14 14 14 14 13 12 12 12 11 10 9 8 7 7 6 5 3 4 3 3 2 2 2 3 7 4 5 10 13 15 15 14 13
15 10 10 13 12 12 10 11 12 12 13 12 13 13 13 12 11 10 9 8 7 6 5 5 4 3 2 2 2 1 3 4 2 2 1 3 3 9 10 13 14 13 12
16 12 12 14 14 12 11 10 11 12 11 11 12 12 11 12 11 10 9 8 7 5 5 4 4 5 5 4 3 4 6 7 7 4 3 5 4 8 11 12 11 13 13
16 13 16 15 14 13 12 11 11 11 10 10 10 11 10 10 10 9 7 6 6 6 5 5 5 5 5 5 5 5 7 8 10 6 3 7 5 12 12 11 13 12 11
15 11 13 16 14 13 12 12 11 10 8 8 8 8 8 7 6 6 6 6 7 7 6 6 6 6 5 7 5 6 7 9 6 6 3 5 6 12 12 10 13 13 13
18 13 12 16 14 13 12 11 9 8 7 6 6 6 5 5 5 5 7 8 8 8 8 8 7 7 7 8 8 9 9 9 8 6 2 7 14 15 13 10 11 12 12
17 13 10 10 11 13 12 11 10 8 7 7 6 5 3 3 4 6 8 8 9 10 10 9 9 9 9 9 8 6 8 11 7 5 6 3 14 17 16 14 12 12 12
17 15 11 9 7 7 7 11 10 10 9 9 6 6 6 7 8 10 10 10 12 13 12 11 10 10 8 8 9 8 7 11 6 8 11 6 16 16 17 17 15 13 13
14 14 13 12 11 8 7 8 11 13 12 10 9 10 9 4 6 9 10 13 15 15 13 13 11 13 11 11 10 8 8 3 4 2 3 12 5 32 11 14 15 15 14
14 14 13 12 10 8 8 7 6 6 4 4 6 6 4 5 5 7 10 15 14 17 15 11 11 14 11 3 11 15 2 4 8 6 6 10 13 24 20 15 15 15 14
8 12 11 12 11 12 6 5 3 4 4 5 8 7 6 2 2 4 3 4 4 11 5 5 5 6 2 10 6 10 5 11 0 4 8 22 24 26 22 25 12 12 15
7 10 10 10 6 9 5 5 6 4 4 4 5 6 4 2 3 4 3 4 4 2 3 4 4 6 4 11 8 8 17 9 3 5 9 23 17 19 21 16 17 15 14
8 7 10 8 7 3 6 2 3 4 5 3 4 5 4 3 3 3 3 1 2 2 5 6 5 6 6 10 9 7 14 14 9 6 5 17 16 18 20 15 11 11 16
9 11 8 8 6 3 4 2 1 3 5 3 3 5 7 4 1 4 2 2 3 4 1 5 5 6 7 9 12 11 10 10 12 13 8 10 19 18 12 17 15 16 16
9 11 9 8 6 4 2 2 1 3 4 2 3 4 4 5 5 4 1 4 2 2 6 3 5 1 1 0 3 6 3 7 5 8 5 6 8 14 13 16 11 11 14
10 13 11 10 7 6 5 4 3 3 1 4 3 3 6 4 7 5 2 3 1 3 3 3 4 0 2 2 2 2 4 5 8 7 6 4 3 6 8 14 14 12 18
10 13 10 10 12 9 7 5 6 6 5 1 3 4 5 3 8 7 5 4 3 2 5 1 3 1 1 3 3 4 4 4 6 6 7 6 4 4 4 8 12 14 17
11 11 9 10 12 10 6 5 3 3 4 3 4 4 2 4 6 6 4 6 3 4 2 5 0 2 2 3 1 3 3 3 4 5 7 5 4 3 4 5 4 4 10
11 10 9 10 9 7 3 3 4 2 3 2 4 6 6 6 4 6 6 5 5 6 5 2 1 2 3 2 3 3 3 3 5 4 4 3 2 2 1 1 3 2 2
12 9 8 7 8 5 4 3 3 3 1 3 4 6 5 5 7 4 5 3 2 2 2 2 1 2 3 1 1 1 2 3 1 2 2 1 3 3 3 2 1 1 1
15 13 11 9 8 6 6 2 2 1 2 1 3 3 3 6 5 7 6 6 3 2 2 2 2 1 2 3 2 3 3 3 2 1 2 2 4 2 2 0 2 2 4
16 15 14 11 9 8 8 4 4 4 4 3 4 4 5 8 7 6 7 5 4 2 3 4 4 3 3 3 2 3 3 4 3 4 2 2 3 2 2 1 3 4 2
18 15 15 14 12 9 8 7 5 4 4 3 1 4 6 7 7 6 5 5 5 3 3 2 2 2 2 3 3 2 2 1 2 3 6 1 1 1 2 0 1 2 2
17 17 16 16 14 13 12 9 8 7 6 3 2 2 3 3 4 5 5 4 4 3 2 1 3 3 4 3 2 3 3 2 3 3 4 1 1 1 2 2 3 1 3
Wind_Direction
125 135 131 118 106 98 91 89 92 94 101 103 105 101 101 105 106 105 102 95 94 90 85 88 83 82 85 79 78 79 87 100 112 116 116 116 110 120 117 116 108 109 111
136 137 128 124 115 105 99 98 96 100 103 106 105 110 110 111 110 112 115 109 102 101 102 99 98 92 84 81 78 82 88 88 115 128 132 130 123 101 118 126 118 122 122
132 136 132 126 122 116 110 110 102 98 106 112 117 115 112 116 116 116 119 120 124 127 126 120 108 106 107 99 77 67 42 96 113 140 146 153 135 123 112 125 129 130 134
140 136 140 132 129 129 119 114 108 109 106 114 117 114 120 119 119 117 116 122 129 129 132 133 137 147 177 170 180 257 283 292 268 202 103 265 178 135 134 134 141 140 136
142 137 142 139 140 129 128 117 118 115 116 120 116 121 128 132 130 129 140 147 146 150 156 167 188 189 202 208 225 271 287 300 299 291 225 196 213 155 155 151 152 148 145
125 133 140 143 139 136 136 126 120 120 131 130 129 135 137 130 130 135 137 147 162 175 185 195 205 199 214 229 231 242 270 282 297 291 215 201 213 167 170 170 164 164 159
126 139 140 138 141 141 134 135 136 133 131 138 148 151 143 142 143 147 162 180 196 200 203 212 222 227 230 234 240 247 262 277 283 274 325 146 169 169 172 185 175 169 164
134 138 139 140 143 143 147 147 146 149 159 174 179 173 166 164 176 190 205 212 215 221 222 223 228 235 236 236 230 229 245 267 284 298 262 175 172 169 179 178 172 171 177
134 138 141 142 156 152 152 159 160 173 184 194 202 198 203 217 230 234 239 238 234 233 231 233 235 238 240 247 256 266 265 271 279 292 306 216 176 176 179 180 181 185 180
142 147 154 153 157 166 170 174 180 188 203 207 211 220 217 225 235 235 229 235 240 233 231 235 241 248 252 257 259 251 272 294 328 358 6 328 196 189 183 182 179 198 187
150 154 159 161 175 174 176 185 192 198 210 213 217 224 218 209 224 238 232 230 235 236 231 226 235 241 234 232 249 287 22 36 47 54 308 311 254 16 231 197 186 194 193
156 163 163 167 174 170 177 182 190 203 208 208 228 233 218 211 231 223 224 235 240 225 232 236 231 241 237 9 39 61 38 214 150 227 223 249 132 62 300 233 203 197 209
173 163 160 166 172 177 169 173 189 189 202 214 205 211 226 195 225 234 220 242 207 232 229 221 231 255 191 95 97 111 257 254 152 218 229 221 181 159 212 254 205 201 209
159 149 135 165 126 168 166 178 200 187 195 214 225 202 180 143 196 247 231 224 219 215 198 224 196 209 172 148 178 162 203 223 238 205 211 218 200 182 207 193 193 191 198
136 145 136 128 97 120 124 160 108 147 180 230 229 216 184 181 256 257 265 173 253 214 182 211 213 208 200 186 211 204 203 216 197 216 213 205 220 206 206 205 207 187 169
131 125 132 126 115 133 89 63 78 146 167 202 224 215 198 171 163 72 333 353 326 6 250 230 206 213 219 183 214 208 223 232 228 195 189 196 198 188 212 229 220 206 183
138 138 137 140 143 149 144 206 252 258 28 49 301 278 226 172 156 117 344 315 342 303 299 325 251 292 326 85 178 213 151 144 112 153 151 164 193 220 221 220 236 209 202
139 145 153 151 158 180 208 215 214 251 223 215 257 253 240 201 119 109 50 257 280 281 306 38 313 182 312 27 14 46 56 117 121 131 136 154 140 205 208 239 224 229 209
151 151 168 152 167 183 211 217 221 202 225 184 227 203 234 181 136 141 199 226 204 270 268 326 271 154 349 324 327 338 18 121 130 135 137 131 156 156 149 218 233 256 225
150 151 165 150 170 186 202 211 250 224 205 222 227 156 275 241 160 160 215 251 108 237 211 231 318 320 304 262 27 348 321 140 128 116 120 126 210 138 153 208 200 236 231
153 150 166 153 180 172 183 195 249 255 240 193 136 197 202 231 204 167 198 223 201 202 199 178 265 7 322 350 41 360 342 121 132 111 106 113 59 49 317 308 171 183 218
160 162 161 170 157 167 164 213 189 209 213 185 185 205 187 240 236 167 170 198 144 117 276 285 85 340 358 335 142 176 321 320 347 156 102 57 10 10 350 269 111 141 187
168 169 170 175 173 177 190 213 262 218 351 126 253 300 220 223 175 199 184 196 191 153 185 259 23 52 253 300 205 160 334 251 305 172 204 284 316 23 350 175 152 221 232
175 174 175 174 170 189 203 200 230 197 203 220 219 219 236 209 222 200 200 201 194 184 179 214 176 167 152 278 314 224 210 191 202 301 253 244 287 343 277 236 347 331 357
173 176 178 179 177 182 193 200 204 234 226 243 297 211 204 217 222 222 203 193 187 187 251 276 3 316 231 212 218 288 315 261 189 207 287 287 47 317 263 103 52 67 345
170 178 179 182 189 183 192 206 204 224 235 255 321 327 250 264 254 232 215 186 184 202 220 244 274 282 273 250 262 272 227 230 264 206 237 288 176 327 60 75 76 17 350